Regional Weather Roundup
Issued by NWS San Angelo, TX

Home | Current Version | Previous Version | Text Only | Print | Product List | Glossary Off
Versions: 1 2 3 4 5 6 7 8 9 10 11 12 13 14 15 16 17 18 19 20 21 22 23 24 25 26 27 28 29 30 31 32 33 34 35 36 37 38 39 40 41 42 43 44 45 46 47 48 49 50

000
ASUS44 KSJT 230810
RWRSJT
WEST CENTRAL TEXAS REGIONAL WEATHER ROUNDUP
NATIONAL WEATHER SERVICE SAN ANGELO TX
300 AM CDT THU OCT 23 2014

NOTE: "FAIR" INDICATES FEW OR NO CLOUDS BELOW 12,000 FEET WITH NO
SIGNIFICANT WEATHER AND/OR OBSTRUCTIONS TO VISIBILITY.

TXZ049-054-064>066-071>073-076>078-098-099-113-114-127-128-139-140-
154-155-168>170-230900
...LOCATIONS ACROSS WEST CENTRAL TEXAS...

CITY           SKY/WX    TMP DP  RH WIND       PRES   REMARKS
SAN ANGELO     CLEAR     58  54  86 W3        30.12S
ABILENE        CLOUDY    60  55  83 S5        30.13R
DYESS AFB      MOCLDY    58  54  86 CALM      30.12R
JUNCTION       CLOUDY    62  61  96 CALM      30.12S
SWEETWATER     CLOUDY    60  56  85 S3        30.16S
BROWNWOOD      CLOUDY    64  57  77 NW5       30.12R
COLEMAN        CLOUDY    63  58  83 CALM      30.12S
SONORA         CLEAR     57  57 100 N3        30.18R
OZONA          FAIR      55  54  94 CALM      30.17S
BRADY          CLEAR     63  52  67 CALM      30.11S
$$

TEXAS PANHANDLE/OKLAHOMA PANHANDLE

CITY           SKY/WX    TMP DP  RH WIND       PRES   REMARKS
AMARILLO       MOCLDY    60  58  92 S14       30.12S
BORGER         NOT AVBL
CANADIAN       CLOUDY    63  61  93 SW3       30.09S
DALHART        CLEAR     55  53  93 S7        30.11S FOG
DUMAS            N/A     57  56  95 S6        30.11R FOG
GUYMON         NOT AVBL
HEREFORD       CLOUDY    63  60  91 S10       30.13S
PAMPA          PTSUNNY   60  58  92 S8        30.12S
PERRYTON       PTCLDY    61  57  88 S9        30.09R
$$

SOUTHERN PANHANDLE/SOUTH PLAINS/ROLLING PLAINS

CITY           SKY/WX    TMP DP  RH WIND       PRES   REMARKS
LUBBOCK        CLEAR     55  53  93 S6        30.14S FOG
SNYDER         CLOUDY    58  56  92 CALM      30.14S
CHILDRESS      FOG       61  60  97 S5        30.12S VSB 1/4
SEMINOLE       PTSUNNY   54  53  97 SW5       30.15S
$$

PERMIAN BASIN

CITY           SKY/WX    TMP DP  RH WIND       PRES   REMARKS
MIDLAND        CLEAR     56  53  90 SE5       30.12S
ODESSA         CLEAR     57  54  89 S5        30.12F
WINK           CLEAR     58  57  97 E6        30.10S
$$

FAR WEST/SOUTHWEST MOUNTAINS/TRANS PECOS

CITY           SKY/WX    TMP DP  RH WIND       PRES   REMARKS
ALPINE         SUNNY     57  56  95 SW8       30.24S
DRYDEN           N/A     62  60  93 CALM      30.12S
EL PASO        CLEAR     61  54  77 SE5       30.14R
FORT STOCKTON  CLEAR     59  57  93 S12       30.11S
GUADALUPE PASS CLEAR     57  53  86 SW12      30.23S
MARFA          CLOUDY    57  57 100 S3        30.23S
PECOS          SUNNY     59  57  93 NE3       30.10S
$$

DALLAS/FORT WORTH METROPLEX

CITY           SKY/WX    TMP DP  RH WIND       PRES   REMARKS
DFW AIRPORT    CLOUDY    65  55  70 SE6       30.11S
FTW MEACHAM    CLOUDY    70  54  56 SE9       30.10S
DAL-EXECUTIVE  CLOUDY    67  54  63 SE5       30.11S
GRAND PRAIRIE  CLOUDY    68  55  64 SE6       30.13R
ADDISON        CLOUDY    67  56  67 SE6       30.14R
MESQUITE       CLOUDY    64  52  66 SE3       30.12S
LANCASTER      CLOUDY    63  53  69 CALM      30.13R
$$

NORTH CENTRAL TEXAS

CITY           SKY/WX    TMP DP  RH WIND       PRES   REMARKS
SHRMAN/DENISON LGT RAIN  62  58  86 CALM      30.15R
GAINESVILLE    DRIZZLE   63  56  80 SE7       30.14S
BRIDGEPORT     CLOUDY    67  59  75 SE3       30.13R
DENTON         CLOUDY    65  57  75 SE5       30.11S
WAXAHACHIE     CLOUDY    65  54  67 CALM      30.14R
GRANBURY       CLOUDY    69  57  65 SE6       30.12S
$$

WESTERN NORTH TEXAS

CITY           SKY/WX    TMP DP  RH WIND       PRES   REMARKS
WICHITA FALLS  CLOUDY    65  61  87 SE3       30.09S
VERNON         MOSUNNY   63  59  88 CALM      30.10S
BRECKENRIDGE   CLOUDY    66  58  75 SE7       30.10S
COMANCHE       PTCLDY    64  60  84 SE3       30.11R
$$

CENTRAL AND SOUTH CENTRAL TEXAS

CITY           SKY/WX    TMP DP  RH WIND       PRES   REMARKS
AUSTIN/BERGSTM CLOUDY    66  61  84 SW3       30.09S
WACO           LGT RAIN  66  59  78 SE3       30.10F
HILLSBORO      LGT RAIN  66  55  66 E8        30.12S
TEMPLE         CLOUDY    66  54  63 E8        30.10S
KILLEEN-GRAY   MOCLDY    70  57  64 SE9       30.10S
FORT HOOD      CLOUDY    69  58  67 E3        30.10F
GEORGETOWN     CLOUDY    66  57  72 CALM      30.10S
LAGO VISTA     FAIR      69  57  66 SE6       30.13R
SAN MARCOS     CLOUDY    64  59  82 CALM      30.12S
NEW BRAUNFELS  LGT RAIN  68  64  87 N3        30.10R
RANDOLPH AFB   CLOUDY    68  60  76 NE2       30.11R
SAN ANTONIO    CLOUDY    71  63  75 SE5       30.10S
STINSON        CLOUDY    70  62  76 CALM      30.08S
PLEASANTON     NOT AVBL
LA GRANGE      CLOUDY    68  62  78 CALM      30.06F
GIDDINGS       CLOUDY    66  58  76 CALM      30.13R
$$

EAST TEXAS

CITY           SKY/WX    TMP DP  RH WIND       PRES   REMARKS
PARIS          CLOUDY    57  48  72 SE6       30.15R
CLARKSVILLE    NOT AVBL
TYLER          CLOUDY    64  52  64 E9        30.12R
LONGVIEW       CLOUDY    59  53  80 SE5       30.12S
PALESTINE      CLOUDY    64  54  68 E7        30.13R
NACOGDOCHES    CLOUDY    59  52  77 E5        30.12F
$$

TEXAS HILL COUNTRY AND EDWARDS PLATEAU

CITY           SKY/WX    TMP DP  RH WIND       PRES   REMARKS
LLANO          NOT AVBL
HORSESHOE BAY  FAIR      68  58  70 CALM      30.10S
KERRVILLE      CLOUDY    63  61  94 E3        30.13R
FREDERICKSBRG  CLOUDY    64  61  88 CALM      30.13R
ROCKSPRINGS    CLOUDY    61  61 100 CALM      30.15F
HONDO          LGT RAIN  65  65 100 SE10      30.09F
UVALDE         PTSUNNY   68  67  95 N3        30.12R
DEL RIO        CLOUDY    65  64  97 CALM      30.09F
$$

SOUTHEAST TEXAS

CITY           SKY/WX    TMP DP  RH WIND       PRES   REMARKS
COLLEGE STN    NOT AVBL
CALDWELL       CLOUDY    64  61  88 CALM      30.12F
CROCKETT       CLOUDY    64  57  77 E3        30.15R
BRENHAM        CLOUDY    67  58  72 SE5       30.10R
HUNTSVILLE     CLOUDY    61  57  87 CALM      30.10F
CONROE         CLOUDY    62  55  77 CALM      30.11R
HOUSTON BUSH   MOCLDY    62  56  80 N5        30.09S
HOUSTON HOBBY  PTCLDY    65  58  78 NE5       30.08R
PERLAND        CLEAR     64  60  87 NE5       30.09R
WHARTON        SUNNY     59  57  92 CALM      30.08S
$$

THE UPPER TEXAS COAST

CITY           SKY/WX    TMP DP  RH WIND       PRES   REMARKS
ORANGE         MOSUNNY   60  53  78 NE6       30.09F
PORT ARTHUR    PTCLDY    63  53  70 NE8       30.07S
GALVESTON      CLEAR     70  60  70 NE7       30.07S
ANGLETON       CLEAR     57  57 100 N5        30.06F FOG
BAY CITY         N/A     61  60  97 N3        30.06S
$$

TEXAS COASTAL BEND, RIO GRANDE PLAINS DEEP SOUTH TEXAS

CITY           SKY/WX    TMP DP  RH WIND       PRES   REMARKS
VICTORIA       MOCLDY    62  59  90 NE7       30.06F
BEEVILLE       FAIR      65  61  86 E3        30.06S
ROCKPORT       CLEAR     73  63  70 E10       30.03F
PORT ARANSAS   SUNNY     73  63  68 E7        30.03S
PORT LAVACA    MOSUNNY   67  62  84 E6        30.06S
CORPUS CHRISTI PTCLDY    70  63  78 CALM      30.04S
KINGSVILLE NAS CLEAR     65  64  97 N5        30.04S
COTULLA        NOT AVBL
LAREDO         CLOUDY    73  65  76 SE3       30.09S
BROWNSVILLE    CLEAR     70  67  90 CALM      30.01S
PORT ISABEL    PTCLDY    74  66  76 NE5       30.00F
HEBBRONVILLE   MOSUNNY   67  63  88 CALM      30.07S
MCALLEN        CLOUDY    72  67  84 N3        30.03S
WESLACO        CLOUDY    69  65  88 CALM      30.01F
FALFURRIAS     SUNNY     65  64  94 N3        30.04S
EDINBURG       SUNNY     69  65  88 NE3       30.03F
$$



USA.gov is the U.S. government's official web portal to all federal, state and local government web resources and services.